Time,TemperatureF,DewpointF,PressureIn,WindDirection,WindDirectionDegrees,WindSpeedMPH,WindSpeedGustMPH,Humidity,HourlyPrecipIn,Conditions,Clouds,dailyrainin,SoftwareType,DateUTC
2013-01-07 00:03:00,29.0,26.0,30.04,WSW,253,1.0,2.0,88,0.00,,,0.04,,2013-01-07 05:03:00,
2013-01-07 00:12:00,29.0,26.0,30.04,WSW,253,1.0,2.0,88,0.00,,,0.04,,2013-01-07 05:12:00,
2013-01-07 00:22:00,30.0,26.0,30.04,NNW,336,1.0,3.0,86,0.00,,,0.04,,2013-01-07 05:22:00,
2013-01-07 00:33:00,30.0,26.0,30.05,NNW,336,1.0,3.0,85,0.00,,,0.04,,2013-01-07 05:33:00,
2013-01-07 00:42:00,30.0,26.0,30.05,NNW,336,1.0,3.0,85,0.00,,,0.04,,2013-01-07 05:42:00,
2013-01-07 00:52:00,30.0,26.0,30.05,NNW,340,1.0,4.0,84,0.00,,,0.04,,2013-01-07 05:52:00,
2013-01-07 01:02:00,30.0,26.0,30.06,NNW,340,1.0,3.0,84,0.00,,,0.04,,2013-01-07 06:02:00,
2013-01-07 01:12:00,30.0,26.0,30.06,NNW,340,1.0,3.0,84,0.00,,,0.04,,2013-01-07 06:12:00,
2013-01-07 01:22:00,30.0,26.0,30.06,NNW,340,1.0,3.0,84,0.00,,,0.04,,2013-01-07 06:22:00,
2013-01-07 01:32:00,30.0,26.0,30.06,North,360,0.0,2.0,84,0.00,,,0.04,,2013-01-07 06:32:00,
2013-01-07 01:42:00,30.0,26.0,30.06,North,360,0.0,2.0,84,0.00,,,0.04,,2013-01-07 06:42:00,
2013-01-07 01:52:00,31.0,26.0,30.07,North,360,1.0,2.0,83,0.00,,,0.04,,2013-01-07 06:52:00,
2013-01-07 02:02:00,31.0,26.0,30.07,North,360,1.0,2.0,83,0.00,,,0.04,,2013-01-07 07:02:00,
2013-01-07 02:12:00,31.0,26.0,30.07,North,360,1.0,2.0,83,0.00,,,0.04,,2013-01-07 07:12:00,
2013-01-07 02:22:00,31.0,26.0,30.08,North,360,0.0,2.0,83,0.00,,,0.04,,2013-01-07 07:22:00,
2013-01-07 02:33:00,30.0,26.0,30.09,North,360,0.0,0.0,84,0.00,,,0.04,,2013-01-07 07:33:00,
2013-01-07 02:42:00,30.0,26.0,30.09,North,360,0.0,0.0,84,0.00,,,0.04,,2013-01-07 07:42:00,
2013-01-07 02:52:00,29.0,25.0,30.09,North,360,0.0,2.0,85,0.00,,,0.04,,2013-01-07 07:52:00,
2013-01-07 03:03:00,28.0,25.0,30.09,North,360,0.0,0.0,87,0.00,,,0.04,,2013-01-07 08:03:00,
2013-01-07 03:12:00,28.0,25.0,30.09,North,360,0.0,0.0,87,0.00,,,0.04,,2013-01-07 08:12:00,
2013-01-07 03:22:00,28.0,25.0,30.10,North,360,0.0,0.0,87,0.00,,,0.04,,2013-01-07 08:22:00,
2013-01-07 03:33:00,28.0,25.0,30.09,North,360,0.0,0.0,89,0.00,,,0.04,,2013-01-07 08:33:00,
2013-01-07 03:43:00,28.0,25.0,30.09,North,360,0.0,0.0,89,0.00,,,0.04,,2013-01-07 08:43:00,
2013-01-07 03:52:00,28.0,25.0,30.10,North,360,0.0,0.0,88,0.00,,,0.04,,2013-01-07 08:52:00,
2013-01-07 04:02:00,28.0,25.0,30.10,North,360,0.0,1.0,88,0.00,,,0.04,,2013-01-07 09:02:00,
2013-01-07 04:12:00,28.0,25.0,30.10,North,360,0.0,1.0,88,0.00,,,0.04,,2013-01-07 09:12:00,
2013-01-07 04:23:00,27.0,24.0,30.10,North,360,0.0,0.0,88,0.00,,,0.04,,2013-01-07 09:23:00,
2013-01-07 04:32:00,27.0,24.0,30.11,North,360,0.0,0.0,89,0.00,,,0.04,,2013-01-07 09:32:00,
2013-01-07 04:42:00,27.0,24.0,30.11,North,360,0.0,0.0,89,0.00,,,0.04,,2013-01-07 09:42:00,
2013-01-07 04:52:00,27.0,24.0,30.12,North,360,0.0,1.0,90,0.00,,,0.04,,2013-01-07 09:52:00,
2013-01-07 05:02:00,28.0,25.0,30.12,North,360,0.0,0.0,89,0.00,,,0.04,,2013-01-07 10:02:00,
2013-01-07 05:12:00,28.0,25.0,30.12,North,360,0.0,0.0,89,0.00,,,0.04,,2013-01-07 10:12:00,
2013-01-07 05:22:00,27.0,24.0,30.12,North,360,0.0,2.0,90,0.00,,,0.04,,2013-01-07 10:22:00,
2013-01-07 05:32:00,28.0,25.0,30.13,North,360,0.0,0.0,88,0.00,,,0.04,,2013-01-07 10:32:00,
2013-01-07 05:42:00,28.0,25.0,30.13,North,360,0.0,0.0,88,0.00,,,0.04,,2013-01-07 10:42:00,
2013-01-07 05:52:00,28.0,25.0,30.13,North,360,0.0,1.0,89,0.00,,,0.04,,2013-01-07 10:52:00,
2013-01-07 06:02:00,28.0,25.0,30.13,North,360,0.0,1.0,89,0.00,,,0.04,,2013-01-07 11:02:00,
2013-01-07 06:12:00,28.0,25.0,30.13,North,360,0.0,1.0,89,0.00,,,0.04,,2013-01-07 11:12:00,
2013-01-07 06:23:00,27.0,24.0,30.15,North,360,0.0,0.0,88,0.00,,,0.04,,2013-01-07 11:23:00,
2013-01-07 06:33:00,27.0,24.0,30.16,North,360,0.0,0.0,90,0.00,,,0.04,,2013-01-07 11:33:00,
2013-01-07 06:43:00,27.0,24.0,30.16,North,360,0.0,0.0,90,0.00,,,0.04,,2013-01-07 11:43:00,
2013-01-07 06:53:00,27.0,25.0,30.17,North,360,0.0,1.0,92,0.00,,,0.04,,2013-01-07 11:53:00,
2013-01-07 07:03:00,28.0,25.0,30.18,North,360,0.0,1.0,89,0.00,,,0.04,,2013-01-07 12:03:00,
2013-01-07 07:12:00,27.0,25.0,30.18,North,360,0.0,0.0,91,0.00,,,0.04,,2013-01-07 12:12:00,
2013-01-07 07:23:00,27.0,25.0,30.18,North,360,0.0,0.0,91,0.00,,,0.04,,2013-01-07 12:23:00,
2013-01-07 07:33:00,26.0,24.0,30.19,North,360,0.0,0.0,92,0.00,,,0.04,,2013-01-07 12:33:00,
2013-01-07 07:43:00,26.0,24.0,30.19,North,360,0.0,0.0,92,0.00,,,0.04,,2013-01-07 12:43:00,
2013-01-07 07:52:00,27.0,25.0,30.20,North,360,0.0,1.0,92,0.00,,,0.04,,2013-01-07 12:52:00,
2013-01-07 08:03:00,27.0,25.0,30.21,North,360,0.0,1.0,91,0.00,,,0.04,,2013-01-07 13:03:00,
2013-01-07 08:12:00,27.0,25.0,30.21,North,360,0.0,1.0,91,0.00,,,0.04,,2013-01-07 13:12:00,
2013-01-07 08:23:00,26.0,24.0,30.22,North,360,0.0,0.0,92,0.00,,,0.04,,2013-01-07 13:23:00,
2013-01-07 08:33:00,27.0,25.0,30.23,North,360,1.0,2.0,92,0.00,,,0.04,,2013-01-07 13:33:00,
2013-01-07 08:43:00,27.0,25.0,30.23,North,360,1.0,2.0,92,0.00,,,0.04,,2013-01-07 13:43:00,
2013-01-07 08:52:00,28.0,25.0,30.24,North,360,0.0,2.0,90,0.00,,,0.04,,2013-01-07 13:52:00,
2013-01-07 09:03:00,28.0,25.0,30.25,North,360,0.0,0.0,90,0.00,,,0.04,,2013-01-07 14:03:00,
2013-01-07 09:13:00,28.0,25.0,30.25,North,360,0.0,0.0,90,0.00,,,0.04,,2013-01-07 14:13:00,
2013-01-07 09:23:00,29.0,26.0,30.26,North,360,0.0,2.0,90,0.00,,,0.04,,2013-01-07 14:23:00,
2013-01-07 09:33:00,31.0,27.0,30.27,NNW,342,0.0,3.0,86,0.00,,,0.04,,2013-01-07 14:33:00,
2013-01-07 09:43:00,31.0,27.0,30.27,NNW,342,0.0,3.0,86,0.00,,,0.04,,2013-01-07 14:43:00,
2013-01-07 09:53:00,33.0,28.0,30.28,NNW,348,0.0,3.0,82,0.00,,,0.04,,2013-01-07 14:53:00,
2013-01-07 10:03:00,34.0,28.0,30.29,NNE,14,0.0,5.0,80,0.00,,,0.04,,2013-01-07 15:03:00,
2013-01-07 10:12:00,34.0,28.0,30.29,NNE,14,0.0,5.0,80,0.00,,,0.04,,2013-01-07 15:12:00,
2013-01-07 10:23:00,34.0,28.0,30.30,NNE,17,2.0,6.0,79,0.00,,,0.04,,2013-01-07 15:23:00,
2013-01-07 10:33:00,35.0,29.0,30.31,North,11,0.0,4.0,78,0.00,,,0.04,,2013-01-07 15:33:00,
2013-01-07 10:43:00,35.0,29.0,30.31,North,11,0.0,4.0,78,0.00,,,0.04,,2013-01-07 15:43:00,
2013-01-07 10:53:00,35.0,28.0,30.32,NNE,13,3.0,7.0,75,0.00,,,0.04,,2013-01-07 15:53:00,
2013-01-07 11:03:00,35.0,27.0,30.33,NW,320,1.0,4.0,73,0.00,,,0.04,,2013-01-07 16:03:00,
2013-01-07 11:12:00,35.0,27.0,30.33,NW,320,1.0,4.0,73,0.00,,,0.04,,2013-01-07 16:12:00,
2013-01-07 11:23:00,36.0,27.0,30.33,NE,47,2.0,5.0,69,0.00,,,0.04,,2013-01-07 16:23:00,
2013-01-07 11:33:00,36.0,26.0,30.33,NE,49,4.0,10.0,66,0.00,,,0.04,,2013-01-07 16:33:00,
2013-01-07 11:43:00,36.0,26.0,30.33,NE,49,4.0,10.0,66,0.00,,,0.04,,2013-01-07 16:43:00,
2013-01-07 11:53:00,36.0,25.0,30.33,ENE,76,3.0,7.0,65,0.00,,,0.04,,2013-01-07 16:53:00,
2013-01-07 12:03:00,36.0,25.0,30.32,NNE,22,1.0,9.0,65,0.00,,,0.04,,2013-01-07 17:03:00,
2013-01-07 12:12:00,36.0,25.0,30.32,NNE,22,1.0,9.0,65,0.00,,,0.04,,2013-01-07 17:12:00,
2013-01-07 12:23:00,36.0,24.0,30.32,North,355,2.0,8.0,62,0.00,,,0.04,,2013-01-07 17:23:00,
2013-01-07 12:33:00,37.0,25.0,30.33,NNE,26,2.0,9.0,61,0.00,,,0.04,,2013-01-07 17:33:00,
2013-01-07 12:42:00,37.0,25.0,30.33,NNE,26,2.0,9.0,61,0.00,,,0.04,,2013-01-07 17:42:00,
2013-01-07 12:53:00,36.0,24.0,30.34,NNE,33,2.0,6.0,61,0.00,,,0.04,,2013-01-07 17:53:00,
2013-01-07 13:03:00,37.0,23.0,30.34,NNE,23,3.0,7.0,57,0.00,,,0.04,,2013-01-07 18:03:00,
2013-01-07 13:13:00,37.0,23.0,30.34,NNE,23,3.0,7.0,57,0.00,,,0.04,,2013-01-07 18:13:00,
2013-01-07 13:23:00,37.0,23.0,30.34,North,351,3.0,6.0,57,0.01,,,0.05,,2013-01-07 18:23:00,
2013-01-07 13:33:00,37.0,22.0,30.35,NE,45,1.0,4.0,55,0.01,,,0.05,,2013-01-07 18:33:00,
2013-01-07 13:43:00,37.0,22.0,30.35,NE,45,1.0,4.0,55,0.01,,,0.05,,2013-01-07 18:43:00,
2013-01-07 13:52:00,37.0,22.0,30.35,NNE,26,0.0,4.0,55,0.01,,,0.05,,2013-01-07 18:52:00,
2013-01-07 14:03:00,37.0,21.0,30.36,North,355,1.0,7.0,53,0.01,,,0.05,,2013-01-07 19:03:00,
2013-01-07 14:12:00,37.0,21.0,30.36,North,355,1.0,7.0,53,0.01,,,0.05,,2013-01-07 19:12:00,
2013-01-07 14:23:00,37.0,21.0,30.36,ENE,61,0.0,4.0,52,0.00,,,0.05,,2013-01-07 19:23:00,
2013-01-07 14:33:00,37.0,21.0,30.38,NE,51,0.0,4.0,51,0.00,,,0.05,,2013-01-07 19:33:00,
2013-01-07 14:43:00,37.0,21.0,30.38,NE,51,0.0,4.0,51,0.00,,,0.05,,2013-01-07 19:43:00,
2013-01-07 14:53:00,37.0,22.0,30.38,ENE,59,1.0,6.0,55,0.00,,,0.03,,2013-01-07 19:53:00,
2013-01-07 15:03:00,37.0,20.0,30.38,ENE,63,1.0,4.0,49,0.00,,,0.03,,2013-01-07 20:03:00,
2013-01-07 15:13:00,37.0,20.0,30.38,ENE,63,1.0,4.0,49,0.00,,,0.03,,2013-01-07 20:13:00,
2013-01-07 15:23:00,37.0,21.0,30.39,NE,49,0.0,3.0,52,0.00,,,0.03,,2013-01-07 20:23:00,
2013-01-07 15:33:00,37.0,21.0,30.40,North,355,0.0,3.0,53,0.00,,,0.03,,2013-01-07 20:33:00,
2013-01-07 15:43:00,37.0,21.0,30.40,North,355,0.0,3.0,53,0.00,,,0.03,,2013-01-07 20:43:00,
2013-01-07 15:52:00,36.0,22.0,30.40,NNW,335,0.0,3.0,56,0.00,,,0.02,,2013-01-07 20:52:00,
2013-01-07 16:03:00,35.0,22.0,30.40,North,5,0.0,3.0,59,0.00,,,0.02,,2013-01-07 21:03:00,
2013-01-07 16:12:00,35.0,22.0,30.40,North,5,0.0,3.0,59,0.00,,,0.02,,2013-01-07 21:12:00,
2013-01-07 16:23:00,35.0,22.0,30.41,NW,313,0.0,2.0,58,0.00,,,0.02,,2013-01-07 21:23:00,
2013-01-07 16:33:00,34.0,21.0,30.41,NW,313,0.0,0.0,58,0.00,,,0.02,,2013-01-07 21:33:00,
2013-01-07 16:43:00,34.0,21.0,30.41,NW,313,0.0,0.0,58,0.00,,,0.02,,2013-01-07 21:43:00,
2013-01-07 16:52:00,33.0,20.0,30.41,NW,313,0.0,0.0,59,0.00,,,0.01,,2013-01-07 21:52:00,
2013-01-07 17:03:00,32.0,20.0,30.42,NW,313,0.0,0.0,61,0.00,,,0.01,,2013-01-07 22:03:00,
2013-01-07 17:12:00,32.0,20.0,30.42,NW,313,0.0,0.0,61,0.00,,,0.01,,2013-01-07 22:12:00,
2013-01-07 17:23:00,31.0,19.0,30.42,NW,313,0.0,0.0,60,0.00,,,0.01,,2013-01-07 22:23:00,
2013-01-07 17:33:00,30.0,18.0,30.43,NW,313,0.0,1.0,61,0.00,,,0.01,,2013-01-07 22:33:00,
2013-01-07 17:43:00,30.0,18.0,30.43,NW,313,0.0,1.0,61,0.00,,,0.01,,2013-01-07 22:43:00,
2013-01-07 17:53:00,30.0,19.0,30.43,NW,313,0.0,1.0,62,0.00,,,0.01,,2013-01-07 22:53:00,
2013-01-07 18:02:00,29.0,18.0,30.44,NW,313,0.0,0.0,62,0.00,,,0.01,,2013-01-07 23:02:00,
2013-01-07 18:12:00,29.0,18.0,30.44,NW,313,0.0,0.0,62,0.00,,,0.01,,2013-01-07 23:12:00,
2013-01-07 18:23:00,29.0,18.0,30.44,NW,313,0.0,0.0,63,0.00,,,0.01,,2013-01-07 23:23:00,
2013-01-07 18:33:00,28.0,18.0,30.44,NW,313,0.0,0.0,65,0.00,,,0.01,,2013-01-07 23:33:00,
2013-01-07 18:43:00,28.0,18.0,30.44,NW,313,0.0,0.0,65,0.00,,,0.01,,2013-01-07 23:43:00,
2013-01-07 18:53:00,28.0,18.0,30.43,NW,313,0.0,0.0,66,0.00,,,0.01,,2013-01-07 23:53:00,
2013-01-07 19:03:00,28.0,18.0,30.43,NW,313,0.0,0.0,66,0.00,,,0.01,,2013-01-08 00:03:00,
2013-01-07 19:12:00,28.0,18.0,30.43,NW,313,0.0,0.0,66,0.00,,,0.01,,2013-01-08 00:12:00,
2013-01-07 19:22:00,27.0,18.0,30.44,NW,313,0.0,1.0,69,0.00,,,0.01,,2013-01-08 00:22:00,
2013-01-07 19:33:00,27.0,18.0,30.44,NW,313,0.0,0.0,69,0.00,,,0.01,,2013-01-08 00:33:00,
2013-01-07 19:42:00,27.0,18.0,30.44,NW,313,0.0,0.0,69,0.00,,,0.01,,2013-01-08 00:42:00,
2013-01-07 19:52:00,27.0,19.0,30.44,NW,313,0.0,0.0,70,0.00,,,0.01,,2013-01-08 00:52:00,
2013-01-07 20:03:00,26.0,18.0,30.44,NW,313,0.0,0.0,70,0.00,,,0.01,,2013-01-08 01:03:00,
2013-01-07 20:12:00,26.0,18.0,30.44,NW,313,0.0,0.0,70,0.00,,,0.01,,2013-01-08 01:12:00,
2013-01-07 20:22:00,26.0,18.0,30.44,NW,313,0.0,0.0,72,0.00,,,0.01,,2013-01-08 01:22:00,
2013-01-07 20:33:00,26.0,18.0,30.44,NW,313,0.0,0.0,72,0.00,,,0.01,,2013-01-08 01:33:00,
2013-01-07 20:42:00,26.0,18.0,30.44,NW,313,0.0,0.0,72,0.00,,,0.01,,2013-01-08 01:42:00,
2013-01-07 20:52:00,25.0,18.0,30.44,NW,313,0.0,0.0,73,0.00,,,0.01,,2013-01-08 01:52:00,
2013-01-07 21:02:00,25.0,18.0,30.44,NW,313,0.0,0.0,73,0.00,,,0.01,,2013-01-08 02:02:00,
2013-01-07 21:12:00,25.0,18.0,30.44,NW,313,0.0,0.0,73,0.00,,,0.01,,2013-01-08 02:12:00,
2013-01-07 21:22:00,25.0,18.0,30.43,NW,313,0.0,1.0,75,0.00,,,0.01,,2013-01-08 02:22:00,
2013-01-07 21:33:00,24.0,18.0,30.43,NW,313,0.0,0.0,76,0.00,,,0.01,,2013-01-08 02:33:00,
2013-01-07 21:42:00,24.0,18.0,30.43,NW,313,0.0,0.0,76,0.00,,,0.01,,2013-01-08 02:42:00,
2013-01-07 21:53:00,24.0,18.0,30.44,NW,313,0.0,0.0,76,0.00,,,0.01,,2013-01-08 02:53:00,
2013-01-07 22:03:00,23.0,17.0,30.43,NW,313,0.0,1.0,78,0.00,,,0.01,,2013-01-08 03:03:00,
2013-01-07 22:12:00,23.0,17.0,30.43,NW,313,0.0,1.0,78,0.00,,,0.01,,2013-01-08 03:12:00,
2013-01-07 22:22:00,23.0,17.0,30.43,NW,313,0.0,0.0,79,0.00,,,0.01,,2013-01-08 03:22:00,
2013-01-07 22:32:00,22.0,16.0,30.43,NW,313,0.0,0.0,79,0.00,,,0.01,,2013-01-08 03:32:00,
2013-01-07 22:43:00,22.0,16.0,30.43,NW,313,0.0,0.0,79,0.00,,,0.01,,2013-01-08 03:43:00,
2013-01-07 22:53:00,22.0,17.0,30.43,NW,313,0.0,1.0,80,0.00,,,0.01,,2013-01-08 03:53:00,
2013-01-07 23:02:00,21.0,16.0,30.43,NW,313,0.0,0.0,81,0.00,,,0.01,,2013-01-08 04:02:00,
2013-01-07 23:12:00,21.0,16.0,30.43,NW,313,0.0,0.0,81,0.00,,,0.01,,2013-01-08 04:12:00,
2013-01-07 23:22:00,21.0,16.0,30.43,NW,313,0.0,0.0,81,0.00,,,0.01,,2013-01-08 04:22:00,
2013-01-07 23:32:00,21.0,16.0,30.42,NW,313,0.0,0.0,82,0.00,,,0.01,,2013-01-08 04:32:00,
2013-01-07 23:42:00,21.0,16.0,30.42,NW,313,0.0,0.0,82,0.00,,,0.01,,2013-01-08 04:42:00,
2013-01-07 23:52:00,21.0,17.0,30.42,NW,313,0.0,0.0,83,0.00,,,0.01,,2013-01-08 04:52:00,